Weather History for KEUG - August, 2014

Change the Weather History Date:

Saturday, August 23, 2014

  Actual Average Record
Temperature  
Mean Temperature 70 °F 66 °F  
Max Temperature 90 °F 82 °F 96 °F (1988)
Min Temperature 50 °F 51 °F 42 °F (1938)
Degree Days  
Heating Degree Days 0 1  
Month to date heating degree days 0 23  
Since 1 June heating degree days 113 216  
Since 1 July heating degree days 6 59  
Cooling Degree Days 5 2  
Month to date cooling degree days 162 76  
Year to date cooling degree days 364 193  
Since 1 June cooling degree days 361 188  
Growing Degree Days 20 (Base 50)    
Moisture  
Dew Point 48 °F    
Average Humidity 52    
Maximum Humidity 83    
Minimum Humidity 21    
Precipitation  
Precipitation 0.00 in 0.03 in 0.86 in (1968)
Month to date precipitation 0.19 0.38  
Year to date precipitation 23.00 25.78  
Sea Level Pressure  
Sea Level Pressure 30.03 in    
Wind  
Wind Speed 8 mph (North)    
Max Wind Speed 22 mph    
Max Gust Speed 28 mph    
Visibility 10 miles    
Events      
T = Trace of Precipitation, MM = Missing Value Source: NWS Daily Summary

Daily Weather History Graph

Daily Weather History Graph

Search for Another Location

Airport or City:

Trip Planner

Search our weather history database for the weather conditions in past years. The results will help you decide how hot, cold, wet, or windy it might be!

Date:

Astronomy

Aug. 23, 2014 Rise Set
Actual Time 6:25 AM PDT 8:04 PM PDT
Civil Twilight 5:55 AM PDT 8:34 PM PDT
Nautical Twilight 5:18 AM PDT 9:11 PM PDT
Astronomical Twilight 4:38 AM PDT 9:51 PM PDT
Moon 4:45 AM PDT (8/23) 6:52 PM PDT (8/23)
Length of Visible Light 14h 39m
Length of Day
13h 38m
Waning Crescent, 3% of the Moon is Illuminated
Aug 23
Waning Crescent
Aug 25
New
Sep 2
First Quarter
Sep 8
Full
Sep 15
Last Quarter

Hourly Weather History & Observations

Time (PDT) Temp. Heat Index Dew Point Humidity Pressure Visibility Wind Dir Wind Speed Gust Speed Precip Events Conditions
12:54 AM 57.9 °F - 48.0 °F 70% 30.06 in 10.0 mi West 3.5 mph - N/A   Clear
1:54 AM 57.2 °F - 48.2 °F 72% 30.06 in 10.0 mi Calm Calm - N/A   Clear
2:54 AM 55.9 °F - 48.0 °F 75% 30.06 in 10.0 mi Calm Calm - N/A   Clear
4:54 AM 53.1 °F - 46.9 °F 80% 30.09 in 10.0 mi Calm Calm - N/A   Clear
5:54 AM 51.1 °F - 46.0 °F 83% 30.09 in 10.0 mi Calm Calm - N/A   Scattered Clouds
6:54 AM 50.0 °F - 44.6 °F 82% 30.11 in 10.0 mi Calm Calm - N/A   Scattered Clouds
7:54 AM 57.2 °F - 50.0 °F 77% 30.11 in 10.0 mi Calm Calm - N/A   Mostly Cloudy
8:54 AM 62.6 °F - 51.8 °F 68% 30.11 in 10.0 mi NE 6.9 mph - N/A   Partly Cloudy
9:54 AM 69.8 °F - 53.6 °F 56% 30.11 in 10.0 mi NNE 8.1 mph - N/A   Partly Cloudy
10:54 AM 73.0 °F - 53.1 °F 49% 30.10 in 10.0 mi North 9.2 mph - N/A   Partly Cloudy
11:54 AM 77.0 °F - 54.0 °F 45% 30.08 in 10.0 mi North 11.5 mph - N/A   Partly Cloudy
12:54 PM 81.0 °F 80.4 °F 53.1 °F 38% 30.06 in 10.0 mi North 9.2 mph 17.3 mph N/A   Clear
1:54 PM 84.9 °F - 51.1 °F 31% 30.03 in 10.0 mi North 13.8 mph 23.0 mph N/A   Partly Cloudy
2:54 PM 88.0 °F - 48.9 °F 26% 30.01 in 10.0 mi NNE 16.1 mph 23.0 mph N/A   Partly Cloudy
3:54 PM 89.1 °F - 46.0 °F 22% 29.99 in 10.0 mi NNE 16.1 mph 27.6 mph N/A   Partly Cloudy
4:54 PM 90.0 °F - 45.0 °F 21% 29.97 in 10.0 mi North 20.7 mph 25.3 mph N/A   Partly Cloudy
5:54 PM 88.0 °F - 45.0 °F 22% 29.96 in 10.0 mi North 18.4 mph - N/A   Partly Cloudy
6:54 PM 84.9 °F - 45.0 °F 25% 29.96 in 10.0 mi North 16.1 mph - N/A   Partly Cloudy
7:54 PM 80.1 °F - 42.1 °F 26% 29.96 in 10.0 mi North 11.5 mph - N/A   Partly Cloudy
8:54 PM 72.0 °F - 44.1 °F 37% 29.96 in 10.0 mi North 6.9 mph - N/A   Partly Cloudy
9:54 PM 66.9 °F - 46.0 °F 47% 29.97 in 10.0 mi North 6.9 mph - N/A   Clear
10:54 PM 68.0 °F - 48.9 °F 50% 29.97 in 10.0 mi North 10.4 mph - N/A   Clear
11:54 PM 64.9 °F - 50.0 °F 58% 29.97 in 10.0 mi North 8.1 mph - N/A   Clear